• Join FlightAware (Why Join?)
  • Login
  • US Flag 
01:42AM EST


 

Airport Tracker/Info


-or-


 

Live Flight TrackerFlight Track Log ✈ SWA471 ✈ 21-Apr-2013 ✈ KMCI - KDAL

Flight Track Log - Related Links

Times and Time Zones

All times are in EDT time to prevent confusion due to time zone crossing. See the SWA471 flight status page for this flight to view local times or setup timezone preferences in your user account.

Time Position Orientation Groundspeed Altitude Reporting Facility
EDT Latitude Longitude Course Direction KTS MPH feet Rate Location/Type
09:30PM 39.2833 -94.7333 228° Southwest 182 209 1,900  Level Kansas City TRACON
09:30PM 39.2744 -94.7461 228° Southwest 152 175 2,800 1,933 Climbing Kansas City Center
09:31PM 39.2306 -94.7900 218° Southwest 204 235 4,800 2,286 Climbing Kansas City Center
09:32PM 39.1667 -94.8133 196° South 246 283 7,600 2,878 Climbing Kansas City Center
09:34PM 39.0847 -94.8392 194° South 270 311 10,700 2,293 Climbing Kansas City Center
09:35PM 39.0031 -94.8658 194° South 321 369 12,300 1,918 Climbing Kansas City Center
09:36PM 38.9128 -94.8944 194° South 347 399 14,600 2,678 Climbing Kansas City Center
09:37PM 38.8036 -94.9281 193° South 358 412 17,700 2,516 Climbing Kansas City Center
09:38PM 38.7078 -94.9594 194° South 367 422 19,800 2,081 Climbing Kansas City Center
09:39PM 38.5900 -94.9964 194° South 391 450 22,000 2,033 Climbing Kansas City Center
09:40PM 38.4850 -95.0289 194° South 401 461 23,900 1,632 Climbing Kansas City Center
09:41PM 38.3778 -95.0625 194° South 415 478 25,400 1,536 Climbing Kansas City Center
09:42PM 38.2475 -95.1022 193° South 427 491 27,100 1,600 Climbing Kansas City Center
09:43PM 38.1331 -95.1397 194° South 439 505 28,600 1,756 Climbing Kansas City Center
09:44PM 38.0011 -95.1867 196° South 439 505 30,700 1,920 Climbing Kansas City Center
09:45PM 37.8925 -95.2236 195° South 431 496 32,600 1,869 Climbing Kansas City Center
09:46PM 37.7819 -95.2606 195° South 415 478 34,500 1,220 Climbing Kansas City Center
09:47PM 37.6733 -95.2964 195° South 406 467 35,100 677 Climbing Kansas City Center
09:48PM 37.5608 -95.3356 195° South 415 478 35,900 446 Climbing Kansas City Center
09:49PM 37.4236 -95.3814 195° South 423 487 36,000 49 Climbing Kansas City Center
09:50PM 37.3081 -95.4197 195° South 426 490 36,000  Level Kansas City Center
09:51PM 37.1919 -95.4592 195° South 429 494 36,000  Level Kansas City Center
09:52PM 37.0769 -95.4981 195° South 429 494 36,000  Level Kansas City Center
09:53PM 36.9614 -95.5364 195° South 429 494 36,000  Level Kansas City Center
09:54PM 36.8472 -95.5742 195° South 427 491 36,000  Level Kansas City Center
09:55PM 36.7317 -95.6122 195° South 430 495 36,000  Level Kansas City Center
09:56PM 36.6172 -95.6503 195° South 428 493 36,000  Level Kansas City Center
09:57PM 36.4794 -95.6908 193° South 429 494 36,000  Level Kansas City Center
09:58PM 36.3511 -95.6672 172° South 459 528 36,000 -242 Level Kansas City Center
09:59PM 36.2244 -95.6386 170° South 462 532 35,500 -496 Descending Kansas City Center
10:00PM 36.0967 -95.6103 170° South 464 534 35,000 -250 Descending Kansas City Center
10:01PM 35.9772 -95.5817 169° South 462 532 35,000  Level Kansas City Center
10:02PM 35.8522 -95.5539 170° South 459 528 35,000  Level Kansas City Center
10:03PM 35.7297 -95.5261 170° South 452 520 35,000  Level Kansas City Center
10:04PM 35.5822 -95.4928 170° South 449 517 35,000  Level Kansas City Center
10:05PM 35.5081 -95.4781 171° South 455 524 35,000  Level Fort Worth Center
10:06PM 35.3867 -95.4503 169° South 449 517 35,000  Level Fort Worth Center
10:07PM 35.2653 -95.4228 170° South 449 517 35,000 -450 Level Fort Worth Center
10:08PM 35.1397 -95.3953 170° South 449 517 34,100 -500 Descending Fort Worth Center
10:09PM 35.0256 -95.4258 192° South 420 483 34,000 -50 Descending Fort Worth Center
10:10PM 34.9200 -95.4814 203° Southwest 420 483 34,000  Level Fort Worth Center
10:11PM 34.8144 -95.5394 204° Southwest 415 478 34,000 -50 Level Fort Worth Center
10:12PM 34.7150 -95.5872 202° Southwest 426 490 33,900 -700 Descending Fort Worth Center
10:13PM 34.6075 -95.6425 203° Southwest 431 496 32,600 -2,100 Descending Fort Worth Center
10:14PM 34.5017 -95.6975 203° Southwest 431 496 29,700 -2,800 Descending Fort Worth Center
10:15PM 34.3961 -95.7575 205° Southwest 426 490 27,000 -2,450 Descending Fort Worth Center
10:16PM 34.2906 -95.8097 202° Southwest 421 484 24,800 -1,500 Descending Fort Worth Center
10:17PM 34.1931 -95.8592 203° Southwest 408 470 24,000 -1,400 Descending Fort Worth Center
10:18PM 34.0853 -95.9164 204° Southwest 395 455 22,000 -1,900 Descending Fort Worth Center
10:19PM 34.0000 -95.9603 203° Southwest 385 443 20,200 -2,000 Descending Fort Worth Center
10:20PM 33.9089 -96.0069 203° Southwest 370 426 18,000 -2,150 Descending Fort Worth Center
10:21PM 33.8175 -96.0533 203° Southwest 364 419 15,900 -2,200 Descending Fort Worth Center
10:22PM 33.7200 -96.1025 203° Southwest 351 404 13,600 -2,150 Descending Fort Worth Center
10:23PM 33.6411 -96.1436 203° Southwest 351 404 11,600 -1,800 Descending Fort Worth Center
10:24PM 33.5497 -96.1897 203° Southwest 337 388 10,000 -800 Descending Fort Worth Center
10:25PM 33.4750 -96.2281 203° Southwest 332 382 10,000  Level Fort Worth Center
10:26PM 33.3814 -96.2767 203° Southwest 332 382 10,000 -200 Level Fort Worth Center
10:27PM 33.3128 -96.3097 202° Southwest 316 364 9,600 -550 Descending Fort Worth Center
10:28PM 33.2444 -96.3653 214° Southwest 289 333 8,900 -800 Descending Fort Worth Center
10:29PM 33.2033 -96.4303 233° Southwest 270 311 8,000 -1,000 Descending Fort Worth Center
10:30PM 33.1578 -96.5078 235° Southwest 270 311 6,900 -1,050 Descending Fort Worth Center
10:31PM 33.1144 -96.5825 235° Southwest 270 311 5,900 -950 Descending Fort Worth Center
10:32PM 33.0900 -96.6572 249° West 270 311 5,000 -1,019 Descending Fort Worth Center
10:33PM 33.0667 -96.7333 250° West 264 304 4,100 -566 Descending Dallas / Fort Worth TRACON
10:34PM 33.0333 -96.8000 239° Southwest 231 266 4,000 -400 Descending Dallas / Fort Worth TRACON
10:35PM 33.0167 -96.8667 253° West 206 237 3,300 -500 Descending Dallas / Fort Worth TRACON
10:36PM 32.9833 -96.9167 232° Southwest 192 221 3,000 -300 Descending Dallas / Fort Worth TRACON
10:37PM 32.9500 -96.9500 220° Southwest 184 212 2,700 -567 Descending Dallas / Fort Worth TRACON
10:38PM 32.9000 -96.9167 151° Southeast 145 167 1,800 -722 Descending Dallas / Fort Worth TRACON
10:39PM 32.8833 -96.8833 121° Southeast 126 145 1,100 -636 Descending Dallas / Fort Worth TRACON
10:41PM 32.8471 -96.8518 176° South  Level Estimated
10:48PM 32.8471 -96.8518 176° South  Level Estimated